[[{"header":{"parameterUnit":"m.s-1","parameterCategory":1,"la1":30.2991,"la2":30.254,"lo1":-89.0895,"lo2":-89.0444,"dx":0.0017,"dy":0.0017,"nx":28,"ny":28,"refTime":"2022-11-26T09:00:00:Z","depth":0,"parameterNumber":2,"parameterNumberName":"U-component_of_WINDS"},"data":[0,0,0,0,0,0,0,0,0,0,0,0,0,0,0,0,0,0,0,0,0,0,0,0,0,0,0,0,0,0,0,0,0,0,0,0,0,0,0,0,0,0,0,0,0,0,0,0,0,0,0,0,0,0,0,0,0,0,-2.7646,-2.7647,0,-2.7723,-2.7724,-2.7725,-2.77,-2.7699,-2.7697,-2.7696,-2.7775,-2.7779,-2.7783,0,0,0,0,0,0,0,0,0,0,0,0,0,-2.748,-2.7483,-2.7646,-2.7647,-2.7648,-2.7723,-2.7724,-2.7725,-2.7701,-2.7699,-2.7697,-2.7695,-2.7774,-2.7779,-2.7783,0,0,0,0,0,0,0,0,0,0,0,0,0,-2.7554,-2.7484,-2.7646,-2.7645,-2.7646,-2.7722,-2.7724,-2.7725,-2.7701,-2.7699,-2.7696,-2.7694,-2.7773,-2.7778,-2.7784,-2.7867,0,0,-2.78,-2.7803,0,0,0,0,0,0,0,0,-2.755,-2.756,-2.7644,-2.7645,-2.7646,-2.7699,-2.7695,-2.7773,-2.7702,-2.768,-2.7695,-2.7693,-2.7752,-2.7759,-2.7779,-2.787,-2.7874,-2.7801,-2.7804,-2.7806,-2.7808,0,0,0,0,0,0,0,-2.7545,-2.7557,-2.7676,-2.7645,-2.7646,-2.7641,-2.7649,-2.7709,-2.7729,-2.7682,-2.768,-2.7689,-2.7752,-2.7774,-2.7781,-2.7875,-2.7801,-2.7806,-2.7809,-2.7811,-2.8039,-2.8041,0,0,0,0,0,0,-2.7539,-2.7553,-2.7674,-2.7679,-2.7591,-2.7646,-2.7655,-2.7685,-2.7728,-2.7733,-2.7691,-2.7688,-2.7766,-2.7774,-2.7784,-2.7884,-2.7806,-2.7812,-2.7815,-2.8036,-2.8039,-2.8042,0,0,0,0,0,0,-2.7536,-2.755,-2.7671,-2.7615,-2.763,-2.7652,-2.7685,-2.7688,-2.7709,-2.7736,-2.7739,-2.771,-2.7764,-2.7776,-2.7846,-2.7886,-2.7814,-2.7819,-2.8033,-2.8037,-2.8041,-2.8085,0,0,0,0,0,0,-2.7531,-2.7549,-2.758,-2.7616,-2.7633,-2.7732,-2.7688,-2.7691,-2.7718,-2.7715,-2.7754,-2.7758,-2.7763,-2.7838,-2.7852,-2.7893,-2.7823,-2.8029,-2.8035,-2.804,-2.808,-2.809,-2.8099,0,0,0,0,0,-2.7525,-2.759,-2.7582,-2.7597,-2.7673,-2.7734,-2.7744,-2.7748,-2.7722,-2.7754,-2.7771,-2.7757,-2.788,-2.7846,-2.7861,-2.7904,-2.8027,-2.8033,-2.8039,-2.8076,-2.8088,-2.8099,0,0,0,0,0,0,-2.7558,-2.7594,-2.7586,-2.7664,-2.7696,-2.773,-2.777,-2.7761,-2.7802,-2.7797,-2.7801,-2.781,-2.7882,-2.79,-2.7861,-2.7987,-2.7949,-2.7959,-2.7972,-2.7984,-2.7994,-2.7988,-2.7828,0,0,0,0,0,-2.7575,-2.7621,-2.765,-2.7716,-2.7733,-2.7749,-2.7776,-2.7776,-2.781,-2.7823,-2.7846,-2.7879,-2.7925,-2.7956,-2.8,-2.8083,-2.8091,-2.812,-2.8129,-2.8137,-2.8145,-2.8191,-2.8204,-2.8063,-2.8063,-2.8063,0,0,-2.7609,-2.7634,-2.7663,-2.7724,-2.7749,-2.7797,-2.776,-2.7813,-2.7849,-2.7832,-2.7899,-2.7917,-2.7955,-2.8032,-2.8067,-2.8049,-2.8186,-2.8145,-2.8151,-2.8155,-2.8199,-2.8212,-2.8224,-2.8067,-2.8066,-2.8066,0,0,-2.7696,-2.772,-2.7778,-2.7804,-2.7842,-2.7852,-2.7866,-2.7902,-2.7913,-2.7981,-2.7968,-2.8012,-2.8091,-2.8119,-2.8143,-2.8242,-2.8231,-2.8256,-2.8305,-2.835,-2.8361,-2.8371,-2.8407,-2.8419,-2.8264,-2.8264,-2.8264,0,-2.7734,-2.7806,-2.7809,-2.7863,-2.789,-2.7876,-2.7935,-2.796,-2.8011,-2.8031,-2.801,-2.811,-2.8134,-2.8218,-2.8242,-2.8262,-2.8278,-2.8252,-2.8359,-2.8369,-2.8378,-2.8413,-2.8426,-2.8267,-2.8267,-2.8267,-2.8266,0,-2.7851,-2.7902,-2.7944,-2.7993,-2.8025,-2.8081,-2.8094,-2.8126,-2.8124,-2.8137,-2.8207,-2.8235,-2.8285,-2.8305,-2.8304,-2.8389,-2.8377,-2.8358,-2.832,-2.8395,-2.8427,-2.844,-2.8271,-2.827,-2.827,-2.8269,0,0,-2.7961,-2.8012,-2.8027,-2.805,-2.8091,-2.813,-2.8186,-2.8235,-2.8263,-2.8298,-2.8346,-2.8414,-2.8396,-2.8424,-2.8426,-2.8465,-2.8542,-2.8441,-2.8442,-2.8459,-2.8639,-2.8653,-2.8668,-2.8535,-2.8537,-2.8539,-2.8636,0,-2.8052,-2.815,-2.8155,-2.8245,-2.8291,-2.8279,-2.8328,-2.8359,-2.8373,-2.8415,-2.843,-2.8479,-2.8452,-2.8469,-2.8507,-2.8525,-2.8578,-2.8518,-2.858,-2.8582,-2.8571,-2.8685,-2.87,-2.8789,-2.8648,-2.865,-2.8652,0,-2.8172,-2.8211,-2.8305,-2.834,-2.836,-2.8404,-2.8449,-2.8489,-2.8525,-2.8532,-2.8563,-2.856,-2.8618,-2.8579,-2.8659,-2.8618,-2.8644,-2.8656,-2.866,-2.8666,-2.8621,-2.8694,-2.8818,-2.8831,-2.8672,-2.867,-2.8669,0,-2.8243,-2.8319,-2.8386,-2.8405,-2.8448,-2.8479,-2.8499,-2.8531,-2.856,-2.86,-2.8619,-2.8665,-2.8691,-2.8727,-2.8736,-2.8706,-2.8817,-2.8778,-2.8825,-2.8825,-2.8849,-2.8847,-2.8978,-2.8865,-2.8865,-2.8865,-2.8864,0,-2.8344,-2.8402,-2.8418,-2.8459,-2.8524,-2.8529,-2.8594,-2.8611,-2.8641,-2.8685,-2.8678,-2.872,-2.8729,-2.8773,-2.8781,-2.8847,-2.8858,-2.8866,-2.8867,-2.8867,-2.8866,-2.8884,-2.8878,-2.8868,-2.8867,-2.8867,-2.8866,0,-2.8435,-2.8448,-2.8519,-2.8554,-2.8564,-2.8611,-2.864,-2.868,-2.8693,-2.8749,-2.8763,-2.8784,-2.8835,-2.8848,-2.8909,-2.8914,-2.8992,-2.8988,-2.898,-2.898,-2.9027,-2.9022,-2.9174,-2.9195,-2.9068,-2.9069,-2.907,0,-2.8498,-2.8543,-2.8582,-2.8611,-2.8632,-2.8679,-2.8709,-2.8716,-2.8747,-2.8791,-2.8826,-2.8877,-2.8917,-2.9001,-2.9021,-2.9069,-2.9065,-2.9115,-2.9072,-2.907,-2.9066,-2.9063,-2.9068,-2.9123,-2.9125,-2.9126,-2.9127,0,-2.861,-2.8615,-2.8657,-2.8703,-2.8739,-2.8775,-2.881,-2.8834,-2.8846,-2.8882,-2.8935,-2.8966,-2.9029,-2.908,-2.9128,-2.9148,-2.914,-2.914,-2.9153,-2.9153,-2.9147,-2.9152,-2.9003,-2.9137,-2.9136,-2.9135,-2.9134,-2.9134,-2.8689,-2.8729,-2.8763,-2.8811,-2.8838,-2.8871,-2.891,-2.8928,-2.8971,-2.9023,-2.9025,-2.9082,-2.9117,-2.918,-2.9204,-2.9249,-2.9234,-2.9253,-2.9258,-2.9263,-2.9267,-2.914,-2.9258,-2.9258,-2.9257,-2.9257,-2.9257,0,-2.8801,-2.8823,-2.8867,-2.8916,-2.8954,-2.8943,-2.8981,-2.9014,-2.9064,-2.9097,-2.9138,-2.9199,-2.9248,-2.9273,-2.9322,-2.9353,-2.9351,-2.9366,-2.9364,-2.9369,-2.9278,-2.9261,-2.9367,-2.9367,-2.9367,-2.9367,-2.9367,-2.9367,-2.8864,-2.8929,-2.8938,-2.9018,-2.9039,-2.9095,-2.9117,-2.9148,-2.9174,-2.9243,-2.9283,-2.9299,-2.9329,-2.9381,-2.9426,-2.9432,-2.945,-2.9467,-2.9472,-2.9386,-2.9375,-2.9364,-2.9349,-2.9471,-2.9471,-2.9559,-2.9559,-2.956]},{"header":{"parameterUnit":"m.s-1","parameterCategory":1,"la1":30.2991,"la2":30.254,"lo1":-89.0895,"lo2":-89.0444,"dx":0.0017,"dy":0.0017,"nx":28,"ny":28,"refTime":"2022-11-26T09:00:00:Z","depth":0,"parameterNumber":3,"parameterNumberName":"V-component_of_WINDS"},"data":[0,0,0,0,0,0,0,0,0,0,0,0,0,0,0,0,0,0,0,0,0,0,0,0,0,0,0,0,0,0,0,0,0,0,0,0,0,0,0,0,0,0,0,0,0,0,0,0,0,0,0,0,0,0,0,0,0,0,-3.4004,-3.4005,0,-3.4096,-3.4097,-3.4098,-3.4107,-3.4106,-3.4105,-3.4104,-3.4194,-3.4197,-3.4201,0,0,0,0,0,0,0,0,0,0,0,0,0,-3.3833,-3.3836,-3.4004,-3.4005,-3.4006,-3.4095,-3.4097,-3.4098,-3.4107,-3.4106,-3.4105,-3.4104,-3.4193,-3.4197,-3.4201,0,0,0,0,0,0,0,0,0,0,0,0,0,-3.3914,-3.3837,-3.4003,-3.4021,-3.4024,-3.4095,-3.4097,-3.4098,-3.4107,-3.4106,-3.4105,-3.4103,-3.4192,-3.4197,-3.4201,-3.426,0,0,-3.4216,-3.4219,0,0,0,0,0,0,0,0,-3.391,-3.392,-3.4018,-3.402,-3.4023,-3.4088,-3.407,-3.4152,-3.4108,-3.4076,-3.4104,-3.4103,-3.416,-3.4167,-3.4188,-3.4264,-3.4268,-3.4217,-3.422,-3.4222,-3.4223,0,0,0,0,0,0,0,-3.3904,-3.3917,-3.404,-3.4019,-3.4022,-3.4024,-3.4034,-3.4085,-3.4124,-3.4078,-3.4079,-3.409,-3.4161,-3.4183,-3.419,-3.4269,-3.4217,-3.4221,-3.4224,-3.4226,-3.4399,-3.4401,0,0,0,0,0,0,-3.3896,-3.3912,-3.4037,-3.4043,-3.3962,-3.4028,-3.4039,-3.4069,-3.4124,-3.4131,-3.4091,-3.409,-3.4175,-3.4184,-3.4193,-3.4266,-3.4222,-3.4227,-3.4229,-3.4397,-3.4399,-3.4401,0,0,0,0,0,0,-3.3892,-3.3907,-3.4033,-3.3978,-3.3994,-3.4033,-3.4066,-3.4071,-3.4093,-3.4134,-3.414,-3.4106,-3.4174,-3.4186,-3.4244,-3.4269,-3.4229,-3.4233,-3.4395,-3.4398,-3.44,-3.4411,0,0,0,0,0,0,-3.3887,-3.3905,-3.3928,-3.3978,-3.3997,-3.4083,-3.4067,-3.4074,-3.4102,-3.4102,-3.415,-3.4156,-3.4174,-3.4236,-3.4248,-3.4275,-3.4237,-3.4393,-3.4397,-3.44,-3.4408,-3.4413,-3.4418,0,0,0,0,0,-3.3881,-3.3927,-3.393,-3.3945,-3.4027,-3.4085,-3.4095,-3.4116,-3.4104,-3.4127,-3.4154,-3.4155,-3.4264,-3.4242,-3.4256,-3.4284,-3.4392,-3.4396,-3.4399,-3.4406,-3.4412,-3.4418,0,0,0,0,0,0,-3.3877,-3.3933,-3.3937,-3.4001,-3.4038,-3.4086,-3.4116,-3.4122,-3.4162,-3.416,-3.4183,-3.4194,-3.4251,-3.4273,-3.4247,-3.4344,-3.4327,-3.4333,-3.4327,-3.4333,-3.4338,-3.4331,-3.4241,0,0,0,0,0,-3.3884,-3.3927,-3.3974,-3.4025,-3.4044,-3.4077,-3.4103,-3.4116,-3.4155,-3.417,-3.4201,-3.4238,-3.4281,-3.4308,-3.435,-3.4412,-3.4422,-3.4438,-3.4443,-3.4446,-3.4452,-3.4487,-3.4494,-3.4413,-3.4413,-3.4413,0,0,-3.3898,-3.3934,-3.396,-3.4025,-3.4056,-3.41,-3.409,-3.4136,-3.4169,-3.4177,-3.4234,-3.4258,-3.43,-3.4361,-3.4389,-3.4381,-3.4476,-3.4451,-3.4453,-3.4457,-3.4491,-3.4499,-3.4506,-3.4416,-3.4416,-3.4415,0,0,-3.3946,-3.3977,-3.4024,-3.4056,-3.4103,-3.4125,-3.4136,-3.4184,-3.4201,-3.4258,-3.4266,-3.4304,-3.4377,-3.4408,-3.4433,-3.4494,-3.4497,-3.4507,-3.4531,-3.4565,-3.4571,-3.4577,-3.4599,-3.4607,-3.4512,-3.4512,-3.4512,0,-3.3957,-3.4024,-3.4047,-3.4095,-3.4123,-3.4134,-3.4182,-3.4211,-3.4268,-3.4287,-3.4278,-3.4371,-3.4401,-3.4469,-3.4484,-3.4504,-3.4517,-3.4501,-3.4569,-3.4575,-3.458,-3.4602,-3.461,-3.4513,-3.4513,-3.4513,-3.4513,0,-3.4036,-3.4083,-3.4115,-3.4172,-3.4205,-3.4251,-3.4281,-3.4311,-3.4321,-3.4344,-3.4403,-3.4439,-3.4488,-3.4505,-3.4515,-3.4575,-3.4569,-3.4564,-3.4547,-3.4589,-3.4609,-3.4618,-3.4514,-3.4514,-3.4514,-3.4513,0,0,-3.4083,-3.4154,-3.4166,-3.4192,-3.4246,-3.4282,-3.4329,-3.4379,-3.4405,-3.4444,-3.4484,-3.4547,-3.4543,-3.4571,-3.4585,-3.4615,-3.4662,-3.4606,-3.4608,-3.4616,-3.4731,-3.4734,-3.4744,-3.4664,-3.4666,-3.4667,-3.4727,0,-3.4137,-3.4224,-3.4247,-3.432,-3.4363,-3.4375,-3.4417,-3.4453,-3.4476,-3.4516,-3.454,-3.4584,-3.4576,-3.4593,-3.4623,-3.465,-3.4685,-3.4646,-3.4701,-3.4703,-3.469,-3.4754,-3.4758,-3.4813,-3.4735,-3.4737,-3.4738,0,-3.4212,-3.4256,-3.4334,-3.4383,-3.4402,-3.4439,-3.4487,-3.4525,-3.4567,-3.4581,-3.4614,-3.4625,-3.4674,-3.4655,-3.4723,-3.4696,-3.472,-3.4736,-3.4739,-3.4745,-3.4723,-3.4762,-3.4831,-3.4839,-3.4751,-3.475,-3.4749,0,-3.424,-3.4317,-3.4374,-3.4397,-3.4455,-3.4481,-3.4506,-3.4547,-3.4576,-3.4618,-3.4637,-3.4683,-3.4709,-3.4744,-3.4767,-3.4751,-3.4834,-3.4816,-3.4846,-3.4846,-3.4863,-3.4862,-3.4937,-3.4878,-3.4878,-3.4878,-3.4878,0,-3.4298,-3.4345,-3.4388,-3.4423,-3.4476,-3.4502,-3.4553,-3.4579,-3.4615,-3.4655,-3.4667,-3.4704,-3.4732,-3.4773,-3.4791,-3.4845,-3.4856,-3.4868,-3.4872,-3.4867,-3.4866,-3.4883,-3.488,-3.488,-3.488,-3.4879,-3.4879,0,-3.4337,-3.4368,-3.4431,-3.4482,-3.4496,-3.4533,-3.4576,-3.461,-3.4634,-3.4684,-3.4697,-3.4733,-3.4782,-3.4809,-3.4868,-3.4881,-3.4941,-3.4943,-3.4928,-3.4929,-3.4959,-3.4956,-3.5048,-3.5062,-3.4993,-3.4994,-3.4994,0,-3.4373,-3.441,-3.4466,-3.4494,-3.452,-3.4565,-3.4596,-3.4623,-3.4653,-3.4705,-3.4733,-3.4782,-3.4823,-3.49,-3.4931,-3.4977,-3.4981,-3.501,-3.4987,-3.4981,-3.4981,-3.4979,-3.4983,-3.5014,-3.5014,-3.5015,-3.5015,0,-3.4432,-3.4446,-3.449,-3.454,-3.4577,-3.4617,-3.4656,-3.4678,-3.4711,-3.4745,-3.4796,-3.4828,-3.4891,-3.494,-3.4989,-3.5013,-3.502,-3.5022,-3.5032,-3.5027,-3.5016,-3.5023,-3.4938,-3.502,-3.5019,-3.5019,-3.5019,-3.5019,-3.4471,-3.4505,-3.455,-3.4599,-3.4632,-3.467,-3.4705,-3.4734,-3.4777,-3.4831,-3.4844,-3.4897,-3.4939,-3.5006,-3.5032,-3.5074,-3.5068,-3.5081,-3.5085,-3.5088,-3.5089,-3.501,-3.5082,-3.5082,-3.5082,-3.5082,-3.5082,0,-3.4532,-3.4562,-3.4607,-3.4663,-3.4702,-3.4707,-3.4751,-3.4782,-3.483,-3.4869,-3.491,-3.4968,-3.5016,-3.5052,-3.5101,-3.5127,-3.5131,-3.5139,-3.5137,-3.5143,-3.5091,-3.5079,-3.5135,-3.5135,-3.5135,-3.5135,-3.5135,-3.5135,-3.4568,-3.4626,-3.4645,-3.472,-3.4749,-3.4803,-3.4828,-3.4863,-3.4894,-3.496,-3.5,-3.5024,-3.5062,-3.5113,-3.5157,-3.5167,-3.5184,-3.5191,-3.5201,-3.5152,-3.5146,-3.5141,-3.5129,-3.5195,-3.5195,-3.5249,-3.5249,-3.525]}]]